H1 CPF 2 NER 2022 2 13 9 044 01 glonass121 H2 1000702 9121 36401 2022 2 13 0 0 0 2022 2 16 23 45 0 900 1 1 0 0 0 1 H9 10 0 59623 0.00000 0 -8618042.163 -18240218.654 15535427.092 10 0 59623 900.00000 0 -7202625.706 -16727785.699 17800642.730 10 0 59623 1800.00000 0 -5475446.696 -15166958.313 19718447.813 10 0 59623 2700.00000 0 -3460704.251 -13621117.700 21251677.510 10 0 59623 3600.00000 0 -1194983.287 -12149400.144 22370744.625 10 0 59623 4500.00000 0 1274042.543 -10804245.378 23054197.743 10 0 59623 5400.00000 0 3889374.739 -9629253.826 23289114.502 10 0 59623 6300.00000 0 6586845.365 -8657441.353 23071324.389 10 0 59623 7200.00000 0 9297572.666 -7909962.577 22405459.083 10 0 59623 8100.00000 0 11950613.864 -7395353.286 21304831.800 10 0 59623 9000.00000 0 14475704.755 -7109320.320 19791150.268 10 0 59623 9900.00000 0 16805972.833 -7035084.236 17894070.951 10 0 59623 10800.00000 0 18880512.736 -7144257.087 15650604.788 10 0 59623 11700.00000 0 20646719.146 -7398215.694 13104387.090 10 0 59623 12600.00000 0 22062282.758 -7749910.715 10304826.424 10 0 59623 13500.00000 0 23096769.223 -8146034.262 7306149.066 10 0 59623 14400.00000 0 23732718.319 -8529454.649 4166357.130 10 0 59623 15300.00000 0 23966220.173 -8841816.297 946119.794 10 0 59623 16200.00000 0 23806946.792 -9026196.534 -2292382.129 10 0 59623 17100.00000 0 23277639.142 -9029708.991 -5486637.452 10 0 59623 18000.00000 0 22413071.971 -8805945.704 -8574990.440 10 0 59623 18900.00000 0 21258539.641 -8317156.692 -11497810.150 10 0 59623 19800.00000 0 19867925.403 -7536076.416 -14198622.527 10 0 59623 20700.00000 0 18301433.396 -6447320.810 -16625185.024 10 0 59623 21600.00000 0 16623076.214 -5048295.765 -18730484.581 10 0 59623 22500.00000 0 14898020.883 -3349577.612 -20473640.928 10 0 59623 23400.00000 0 13189902.002 -1374747.382 -21820698.494 10 0 59623 24300.00000 0 11558212.458 840317.315 -22745292.000 10 0 59623 25200.00000 0 10055879.358 3248666.912 -23229172.602 10 0 59623 26100.00000 0 8727125.802 5793973.835 -23262583.522 10 0 59623 27000.00000 0 7605707.969 8412629.090 -22844476.505 10 0 59623 27900.00000 0 6713602.036 11036157.717 -21982562.930 10 0 59623 28800.00000 0 6060197.457 13593855.241 -20693196.242 10 0 59623 29700.00000 0 5642032.320 16015537.195 -19001085.407 10 0 59623 30600.00000 0 5443084.042 18234287.930 -16938842.336 10 0 59623 31500.00000 0 5435605.255 20189093.632 -14546369.695 10 0 59623 32400.00000 0 5581471.317 21827248.305 -11870099.065 10 0 59623 33300.00000 0 5833983.589 23106430.009 -8962092.894 10 0 59623 34200.00000 0 6140052.431 23996357.813 -5879027.293 10 0 59623 35100.00000 0 6442666.676 24479957.420 -2681075.743 10 0 59623 36000.00000 0 6683543.247 24553984.208 569283.358 10 0 59623 36900.00000 0 6805842.011 24229075.868 3808510.086 10 0 59623 37800.00000 0 6756827.623 23529231.747 6973270.634 10 0 59623 38700.00000 0 6490362.142 22490741.131 10001701.728 10 0 59623 39600.00000 0 5969119.517 21160606.954 12834644.208 10 0 59623 40500.00000 0 5166425.354 19594533.543 15416819.171 10 0 59623 41400.00000 0 4067642.006 17854565.869 17697921.610 10 0 59623 42300.00000 0 2671039.258 16006482.657 19633608.691 10 0 59623 43200.00000 0 988113.529 14117055.799 21186362.777 10 0 59623 44100.00000 0 -956657.367 12251293.412 22326212.521 10 0 59623 45000.00000 0 -3126612.409 10469783.761 23031298.863 10 0 59623 45900.00000 0 -5474223.490 8826251.729 23288276.512 10 0 59623 46800.00000 0 -7942872.714 7365429.501 23092545.147 10 0 59623 47700.00000 0 -10469015.044 6121328.803 22448308.185 10 0 59623 48600.00000 0 -12984634.942 5115984.296 21368460.390 10 0 59623 49500.00000 0 -15419894.192 4358717.314 19874308.825 10 0 59623 50400.00000 0 -17705860.753 3845947.108 17995134.612 10 0 59623 51300.00000 0 -19777206.096 3561553.788 15767605.652 10 0 59623 52200.00000 0 -21574760.452 3477774.364 13235052.817 10 0 59623 53100.00000 0 -23047821.768 3556591.595 10446624.383 10 0 59623 54000.00000 0 -24156124.890 3751555.330 7456335.161 10 0 59623 54900.00000 0 -24871391.639 4009958.775 4322028.394 10 0 59623 55800.00000 0 -25178399.741 4275277.986 1104269.765 10 0 59623 56700.00000 0 -25075528.303 4489772.556 -2134806.256 10 0 59623 57600.00000 0 -24574758.742 4597139.220 -5332676.923 10 0 59623 58500.00000 0 -23701132.089 4545108.227 -8427617.333 10 0 59623 59400.00000 0 -22491685.515 4287874.784 -11359871.055 10 0 59623 60300.00000 0 -20993911.874 3788264.605 -14072784.516 10 0 59623 61200.00000 0 -19263805.261 3019543.378 -16513884.849 10 0 59623 62100.00000 0 -17363572.289 1966794.200 -18635882.004 10 0 59623 63000.00000 0 -15359102.315 627804.387 -20397577.017 10 0 59623 63900.00000 0 -13317299.858 -986577.231 -21764659.670 10 0 59623 64800.00000 0 -11303388.182 -2852630.114 -22710380.551 10 0 59623 65700.00000 0 -9378294.688 -4934494.355 -23216084.265 10 0 59623 66600.00000 0 -7596225.929 -7185418.733 -23271592.657 10 0 59623 67500.00000 0 -6002532.872 -9549476.404 -22875429.240 10 0 59623 68400.00000 0 -4631955.737 -11963680.466 -22034878.531 10 0 59623 69300.00000 0 -3507322.779 -14360414.350 -20765876.807 10 0 59623 70200.00000 0 -2638758.903 -16670078.119 -19092733.830 10 0 59623 71100.00000 0 -2023439.164 -18823841.638 -17047688.298 10 0 59623 72000.00000 0 -1645899.461 -20756389.780 -14670303.293 10 0 59623 72900.00000 0 -1478893.045 -22408544.069 -12006711.480 10 0 59623 73800.00000 0 -1484757.917 -23729649.217 -9108723.357 10 0 59623 74700.00000 0 -1617237.883 -24679621.963 -6032815.406 10 0 59623 75600.00000 0 -1823679.775 -25230573.489 -2839018.105 10 0 59623 76500.00000 0 -2047512.414 -25367934.525 410273.428 10 0 59623 77400.00000 0 -2230900.020 -25091033.535 3651541.005 10 0 59623 78300.00000 0 -2317454.624 -24413102.232 6821410.522 10 0 59623 79200.00000 0 -2254889.132 -23360707.658 9857917.225 10 0 59623 80100.00000 0 -1997495.199 -21972635.351 12701741.462 10 0 59623 81000.00000 0 -1508337.867 -20298272.139 15297388.241 10 0 59623 81900.00000 0 -761071.516 -18395558.885 17594285.443 10 0 59623 82800.00000 0 258701.250 -16328602.043 19547777.720 10 0 59623 83700.00000 0 1552585.982 -14165047.142 21119996.022 10 0 59623 84600.00000 0 3109103.488 -11973326.829 22280585.944 10 0 59623 85500.00000 0 4903959.042 -9819900.721 23007281.533 10 0 59624 0.00000 0 6900860.825 -7766603.631 23286314.963 10 0 59624 900.00000 0 9052852.687 -5868211.791 23112656.216 10 0 59624 1800.00000 0 11304100.972 -4170330.308 22490080.122 10 0 59624 2700.00000 0 13592062.874 -2707684.048 21431062.426 10 0 59624 3600.00000 0 15849942.227 -1502883.018 19956508.685 10 0 59624 4500.00000 0 18009330.997 -565709.059 18095323.596 10 0 59624 5400.00000 0 20002926.607 107050.035 15883830.703 10 0 59624 6300.00000 0 21767213.022 531215.839 13365054.906 10 0 59624 7200.00000 0 23244995.514 734303.401 10587882.411 10 0 59624 8100.00000 0 24387685.686 754115.247 7606114.557 10 0 59624 9000.00000 0 25157243.936 636906.057 4477433.464 10 0 59624 9900.00000 0 25527700.714 435195.979 1262298.861 10 0 59624 10800.00000 0 25486195.350 205324.542 -1977203.750 10 0 59624 11700.00000 0 25033490.811 4847.308 -5178542.787 10 0 59624 12600.00000 0 24183944.023 -110116.461 -8279926.902 10 0 59624 13500.00000 0 22964933.333 -87475.049 -11221476.840 10 0 59624 14400.00000 0 21415766.583 118413.081 -13946362.009 10 0 59624 15300.00000 0 19586114.147 544585.938 -16401881.529 10 0 59624 16200.00000 0 17534030.460 1217683.844 -18540470.429 10 0 59624 17100.00000 0 15323644.151 2152589.993 -20320612.896 10 0 59624 18000.00000 0 13022610.546 3351563.830 -21707645.692 10 0 59624 18900.00000 0 10699430.064 4803905.579 -22674436.660 10 0 59624 19800.00000 0 8420741.890 6486168.859 -23201925.006 10 0 59624 20700.00000 0 6248703.909 8362915.895 -23279512.068 10 0 59624 21600.00000 0 4238566.886 10387987.676 -22905293.682 10 0 59624 22500.00000 0 2436543.615 12506239.844 -22086127.698 10 0 59624 23400.00000 0 878062.435 14655675.314 -20837533.031 10 0 59624 24300.00000 0 -413520.951 16769887.433 -19183419.624 10 0 59624 25200.00000 0 -1427697.857 18780713.485 -17155651.932 10 0 59624 26100.00000 0 -2167032.915 20620988.362 -14793452.009 10 0 59624 27000.00000 0 -2646831.099 22227282.763 -12142651.766 10 0 59624 27900.00000 0 -2894258.086 23542509.778 -9254807.549 10 0 59624 28800.00000 0 -2946950.271 24518288.141 -6186193.692 10 0 59624 29700.00000 0 -2851173.235 25116960.080 -2996694.877 10 0 59624 30600.00000 0 -2659607.547 25313175.920 251380.055 10 0 59624 31500.00000 0 -2428857.567 25094975.989 3494537.769 10 0 59624 32400.00000 0 -2216791.474 24464322.130 6669367.030 10 0 59624 33300.00000 0 -2079828.511 23437055.148 9713804.735 10 0 59624 34200.00000 0 -2070291.815 22042279.737 12568373.760 10 0 59624 35100.00000 0 -2233942.271 20321203.582 15177365.889 10 0 59624 36000.00000 0 -2607800.637 18325481.100 17489944.553 10 0 59624 36900.00000 0 -3218352.103 16115133.803 19461144.305 10 0 59624 37800.00000 0 -4080210.321 13756137.176 21052746.827 10 0 59624 38700.00000 0 -5195297.566 11317777.740 22234016.484 10 0 59624 39600.00000 0 -6552574.866 8869893.111 22982281.906 10 0 59624 40500.00000 0 -8128332.230 6480111.764 23283353.819 10 0 59624 41400.00000 0 -9887025.027 4211208.111 23131773.013 10 0 59624 42300.00000 0 -11782619.541 2118682.646 22530885.930 10 0 59624 43200.00000 0 -13760389.619 248666.221 21492748.844 10 0 59624 44100.00000 0 -15759087.889 -1363766.871 20037864.792 10 0 59624 45000.00000 0 -17713399.952 -2695810.033 18194760.469 10 0 59624 45900.00000 0 -19556578.948 -3737613.074 15999412.960 10 0 59624 46800.00000 0 -21223151.086 -4492423.682 13494538.625 10 0 59624 47700.00000 0 -22651580.403 -4976179.393 10728758.670 10 0 59624 48600.00000 0 -23786783.312 -5216570.338 7755657.758 10 0 59624 49500.00000 0 -24582390.080 -5251614.480 4632753.528 10 0 59624 50400.00000 0 -25002661.003 -5127806.612 1420396.327 10 0 59624 51300.00000 0 -25023979.409 -4897919.504 -1819380.727 10 0 59624 52200.00000 0 -24635860.874 -4618549.381 -5024040.565 10 0 59624 53100.00000 0 -23841437.718 -4347508.007 -8131728.638 10 0 59624 54000.00000 0 -22657399.069 -4141169.714 -11082445.940 10 0 59624 54900.00000 0 -21113388.697 -4051883.386 -13819187.770 10 0 59624 55800.00000 0 -19250884.721 -4125556.755 -16289027.877 10 0 59624 56700.00000 0 -17121606.104 -4399513.497 -18444128.704 10 0 59624 57600.00000 0 -14785509.962 -4900712.723 -20242659.502 10 0 59624 58500.00000 0 -12308460.433 -5644405.971 -21649605.428 10 0 59624 59400.00000 0 -9759663.249 -6633289.338 -22637452.434 10 0 59624 60300.00000 0 -7208970.047 -7857188.507 -23186734.570 10 0 59624 61200.00000 0 -4724162.306 -9293292.766 -23286432.316 10 0 59624 62100.00000 0 -2368326.187 -10906931.770 -22934212.908 10 0 59624 63000.00000 0 -197426.581 -12652866.306 -22136506.101 10 0 59624 63900.00000 0 1741818.631 -14477042.652 -20908411.583 10 0 59624 64800.00000 0 3413674.883 -16318740.321 -19273437.257 10 0 59624 65700.00000 0 4794663.996 -18113025.702 -17263070.838 10 0 59624 66600.00000 0 5874319.071 -19793410.103 -14916190.638 10 0 59624 67500.00000 0 6655387.808 -21294601.029 -12278324.969 10 0 59624 68400.00000 0 7153474.149 -22555230.261 -9400773.098 10 0 59624 69300.00000 0 7396132.227 -23520442.144 -6339604.266 10 0 59624 70200.00000 0 7421450.508 -24144230.576 -3154554.464 10 0 59624 71100.00000 0 7276186.497 -24391423.186 92156.543 10 0 59624 72000.00000 0 7013532.363 -24239226.050 3337062.950 10 0 59624 72900.00000 0 6690608.429 -23678261.116 6516718.889 10 0 59624 73800.00000 0 6365793.717 -22713050.644 9568965.216 10 0 59624 74700.00000 0 6096009.954 -21361927.186 12434169.429 10 0 59624 75600.00000 0 5934077.515 -19656372.903 15056411.923 10 0 59624 76500.00000 0 5926258.260 -17639816.947 17384593.246 10 0 59624 77400.00000 0 6110091.628 -15365943.271 19373439.109 10 0 59624 78300.00000 0 6512617.004 -12896582.138 20984382.856 10 0 59624 79200.00000 0 7149058.008 -10299276.087 22186308.204 10 0 59624 80100.00000 0 8022023.794 -7644624.491 22956138.586 10 0 59624 81000.00000 0 9121259.874 -5003519.287 23279263.140 10 0 59624 81900.00000 0 10423957.187 -2444388.026 23149793.054 10 0 59624 82800.00000 0 11895604.379 -30559.109 22570645.576 10 0 59624 83700.00000 0 13491345.443 2182142.302 21553456.494 10 0 59624 84600.00000 0 15157784.071 4147469.802 20118325.094 10 0 59624 85500.00000 0 16835157.730 5830419.216 18293398.652 10 0 59625 0.00000 0 18459789.709 7208414.274 16114306.430 10 0 59625 900.00000 0 19966717.414 8271969.650 13623454.133 10 0 59625 1800.00000 0 21292385.509 9024805.723 10869196.298 10 0 59625 2700.00000 0 22377295.540 9483416.272 7904898.905 10 0 59625 3600.00000 0 23168500.795 9676108.205 4787912.976 10 0 59625 4500.00000 0 23621844.962 9641556.382 1578477.211 10 0 59625 5400.00000 0 23703852.850 9426935.288 -1661430.005 10 0 59625 6300.00000 0 23393195.889 9085706.271 -4869268.501 10 0 59625 7200.00000 0 22681672.463 8675152.770 -7983122.894 10 0 59625 8100.00000 0 21574662.804 8253766.043 -10942876.712 10 0 59625 9000.00000 0 20091039.345 7878589.737 -13691353.276 10 0 59625 9900.00000 0 18262535.399 7602633.295 -16175402.919 10 0 59625 10800.00000 0 16132596.828 7472461.468 -18346917.252 10 0 59625 11700.00000 0 13754762.177 7526060.216 -20163752.159 10 0 59625 12600.00000 0 11190635.946 7791068.268 -21590542.580 10 0 59625 13500.00000 0 8507536.233 8283449.133 -22599393.807 10 0 59625 14400.00000 0 5775911.480 9006660.667 -23170435.786 10 0 59625 15300.00000 0 3066631.014 9951359.300 -23292228.983 10 0 59625 16200.00000 0 448259.738 11095654.267 -22962012.613 10 0 59625 17100.00000 0 -2015571.242 12405904.652 -22185788.594 10 0 59625 18000.00000 0 -4268589.247 13838029.320 -20978237.261 10 0 59625 18900.00000 0 -6263998.807 15339278.176 -19362463.942 10 0 59625 19800.00000 0 -7966205.325 16850393.205 -17369578.641 10 0 59625 20700.00000 0 -9352070.060 18308070.411 -15038114.554 10 0 59625 21600.00000 0 -10411642.188 19647620.082 -12413294.642 10 0 59625 22500.00000 0 -11148335.472 20805713.139 -9546159.027 10 0 59625 23400.00000 0 -11578540.667 21723096.495 -6492569.534 10 0 59625 24300.00000 0 -11730689.214 22347160.680 -3312110.928 10 0 59625 25200.00000 0 -11643807.765 22634248.456 -66911.217 10 0 59625 26100.00000 0 -11365625.548 22551603.808 3179594.098 10 0 59625 27000.00000 0 -10950316.539 22078875.961 6363927.344 10 0 59625 27900.00000 0 -10455974.671 21209112.410 9423836.169 10 0 59625 28800.00000 0 -9941932.157 19949197.276 12299535.494 10 0 59625 29700.00000 0 -9466037.834 18319715.789 14934897.051 10 0 59625 30600.00000 0 -9082013.953 16354250.723 17278561.110 10 0 59625 31500.00000 0 -8837005.867 14098141.611 19284946.994 10 0 59625 32400.00000 0 -8769430.125 11606760.537 20915141.949 10 0 59625 33300.00000 0 -8907212.741 8943378.986 22137651.036 10 0 59625 34200.00000 0 -9266491.914 6176717.195 22928994.181 10 0 59625 35100.00000 0 -9850838.855 3378280.251 23274140.263 10 0 59625 36000.00000 0 -10651027.821 619593.212 23166771.781 10 0 59625 36900.00000 0 -11645362.787 -2030549.119 22609377.231 10 0 59625 37800.00000 0 -12800544.670 -4508703.932 21613171.842 10 0 59625 38700.00000 0 -14073040.438 -6759166.264 20197850.533 10 0 59625 39600.00000 0 -15410894.782 -8736022.124 18391180.000 10 0 59625 40500.00000 0 -16755907.080 -10404786.752 16228439.585 10 0 59625 41400.00000 0 -18046081.850 -11743563.478 13751722.971 10 0 59625 42300.00000 0 -19218250.119 -12743678.636 11009115.088 10 0 59625 43200.00000 0 -20210752.722 -13409769.760 8053760.349 10 0 59625 44100.00000 0 -20966074.500 -13759326.599 4942840.024 10 0 59625 45000.00000 0 -21433320.808 -13821706.626 1736477.887 10 0 59625 45900.00000 0 -21570434.474 -13636668.059 -1503405.787 10 0 59625 46800.00000 0 -21346062.176 -13252482.649 -4714271.135 10 0 59625 47700.00000 0 -20740993.536 -12723707.391 -7834145.325 10 0 59625 48600.00000 0 -19749113.585 -12108707.883 -10802797.757 10 0 59625 49500.00000 0 -18377828.937 -11467035.981 -13562882.981 10 0 59625 50400.00000 0 -16647949.191 -10856770.223 -16061030.957 10 0 59625 51300.00000 0 -14593027.073 -10331929.019 -18248865.223 10 0 59625 52200.00000 0 -12258182.487 -9940063.785 -20083930.689 10 0 59625 53100.00000 0 -9698456.747 -9720132.116 -21530513.992 10 0 59625 54000.00000 0 -6976762.147 -9700740.061 -22560341.099 10 0 59625 54900.00000 0 -4161508.777 -9898827.833 -23153138.577 10 0 59625 55800.00000 0 -1324004.099 -10318855.616 -23297046.941 10 0 59625 56700.00000 0 1464269.490 -10952525.847 -22988876.844 10 0 59625 57600.00000 0 4134388.041 -11779056.566 -22234201.244 10 0 59625 58500.00000 0 6622617.943 -12765997.543 -21047279.504 10 0 59625 59400.00000 0 8872837.134 -13870558.165 -19450812.328 10 0 59625 60300.00000 0 10838644.277 -15041394.228 -17475529.593 10 0 59625 61200.00000 0 12485066.514 -16220780.688 -15159616.647 10 0 59625 62100.00000 0 13789792.761 -17347080.249 -12547988.112 10 0 59625 63000.00000 0 14743878.939 -18357404.022 -9691421.747 10 0 59625 63900.00000 0 15351893.755 -19190351.108 -6645568.592 10 0 59625 64800.00000 0 15631497.688 -19788709.573 -3469858.734 10 0 59625 65700.00000 0 15612472.368 -20102001.996 -226324.970 10 0 59625 66600.00000 0 15335241.677 -20088764.844 3021630.856 10 0 59625 67500.00000 0 14848948.436 -19718462.052 6210502.435 10 0 59625 68400.00000 0 14209170.207 -18972948.953 9277947.090 10 0 59625 69300.00000 0 13475373.735 -17847422.393 12164029.688 10 0 59625 70200.00000 0 12708219.010 -16350815.425 14812415.426 10 0 59625 71100.00000 0 11966830.234 -14505619.426 17171485.975 10 0 59625 72000.00000 0 11306151.988 -12347141.578 19195355.507 10 0 59625 72900.00000 0 10774504.526 -9922230.173 20844765.954 10 0 59625 73800.00000 0 10411442.706 -7287522.925 22087844.069 10 0 59625 74700.00000 0 10246009.133 -4507293.756 22900706.190 10 0 59625 75600.00000 0 10295454.378 -1650989.869 23267900.467 10 0 59625 76500.00000 0 10564476.535 1209436.653 23182679.876 10 0 59625 77400.00000 0 11045009.785 4002290.709 22647103.007 10 0 59625 78300.00000 0 11716568.250 6658874.672 21671963.103 10 0 59625 79200.00000 0 12547127.948 9116094.600 20276549.059 10 0 59625 80100.00000 0 13494507.397 11318825.669 18488245.160 10 0 59625 81000.00000 0 14508186.958 13221941.245 16341979.047 10 0 59625 81900.00000 0 15531489.269 14791924.491 13879529.886 10 0 59625 82800.00000 0 16504028.772 16007998.966 11148710.978 10 0 59625 83700.00000 0 17364327.777 16862734.748 8202442.881 10 0 59625 84600.00000 0 18052490.212 17362108.168 5097734.759 10 0 59625 85500.00000 0 18512822.278 17525015.420 1894593.057 10 0 59626 0.00000 0 18696291.793 17382262.552 -1345122.166 10 0 59626 900.00000 0 18562724.878 16975075.251 -4558874.293 10 0 59626 1800.00000 0 18082649.245 16353191.452 -7684635.005 10 0 59626 2700.00000 0 17238708.275 15572616.070 -10662061.668 10 0 59626 3600.00000 0 16026586.804 14693130.988 -13433641.968 10 0 59626 4500.00000 0 14455409.685 13775663.157 -15945787.173 10 0 59626 5400.00000 0 12547595.226 12879619.365 -18149854.220 10 0 59626 6300.00000 0 10338167.546 12060297.732 -20003078.309 10 0 59626 7200.00000 0 7873553.798 11366483.038 -21469398.869 10 0 59626 8100.00000 0 5209913.031 10838325.874 -22520163.483 10 0 59626 9000.00000 0 2411062.622 10505594.372 -23134696.103 10 0 59626 9900.00000 0 -453914.977 10386372.561 -23300717.879 10 0 59626 10800.00000 0 -3313288.998 10486261.412 -23014611.219 10 0 59626 11700.00000 0 -6095414.521 10798118.333 -22281520.132 10 0 59626 12600.00000 0 -8731472.146 11302348.783 -21115282.643 10 0 59626 13500.00000 0 -11158100.131 11967740.696 -19538194.046 10 0 59626 14400.00000 0 -13319809.328 12752809.477 -17580602.894 10 0 59626 15300.00000 0 -15171079.211 13607599.375 -15280345.120 10 0 59626 16200.00000 0 -16678045.837 14475866.964 -12682025.106 10 0 59626 17100.00000 0 -17819709.151 15297555.341 -9836156.129 10 0 59626 18000.00000 0 -18588606.878 16011454.143 -6798176.152 10 0 59626 18900.00000 0 -18990925.004 16557931.519 -3627358.196 10 0 59626 19800.00000 0 -19046039.074 16881620.111 -385637.403 10 0 59626 20700.00000 0 -18785505.344 16933940.365 2863620.510 10 0 59626 21600.00000 0 -18251545.089 16675351.071 6056883.072 10 0 59626 22500.00000 0 -17495087.781 16077228.613 9131719.768 10 0 59626 23400.00000 0 -16573458.268 15123292.676 12028047.883 10 0 59626 24300.00000 0 -15547808.822 13810516.066 14689328.513 10 0 59626 25200.00000 0 -14480407.744 12149479.048 17063687.099 10 0 59626 26100.00000 0 -13431902.196 10164153.074 19104934.895 10 0 59626 27000.00000 0 -12458673.288 7891123.670 20773470.592 10 0 59626 27900.00000 0 -11610396.686 5378286.387 22037044.462 10 0 59626 28800.00000 0 -10927912.252 2683072.323 22871370.812 10 0 59626 29700.00000 0 -10441491.976 -129720.759 23260578.287 10 0 59626 30600.00000 0 -10169577.698 -2990399.586 23197491.199 10 0 59626 31500.00000 0 -10118039.428 -5827044.556 22683738.687 10 0 59626 32400.00000 0 -10279982.620 -8568265.511 21729692.032 10 0 59626 33300.00000 0 -10636109.459 -11145929.938 20354233.685 10 0 59626 34200.00000 0 -11155616.010 -13497751.450 18584364.641 10 0 59626 35100.00000 0 -11797584.932 -15569633.144 16454659.528 10 0 59626 36000.00000 0 -12512813.315 -17317671.230 14006581.272 10 0 59626 36900.00000 0 -13245997.593 -18709738.773 11287669.464 10 0 59626 37800.00000 0 -13938183.350 -19726587.045 8350618.425 10 0 59626 38700.00000 0 -14529377.429 -20362421.922 5252262.591 10 0 59626 39600.00000 0 -14961213.611 -20624934.169 2052488.279 10 0 59626 40500.00000 0 -15179561.303 -20534784.713 -1186908.198 10 0 59626 41400.00000 0 -15136969.346 -20124568.032 -4403395.353 10 0 59626 42300.00000 0 -14794843.926 -19437297.730 -7534893.099 10 0 59626 43200.00000 0 -14125270.535 -18524477.623 -10520949.950 10 0 59626 44100.00000 0 -13112404.276 -17443838.272 -13303889.924 10 0 59626 45000.00000 0 -11753370.345 -16256832.291 -15829908.718 10 0 59626 45900.00000 0 -10058636.139 -15025991.544 -18050099.642 10 0 59626 46800.00000 0 -8051837.703 -13812254.946 -19921390.902 10 0 59626 47700.00000 0 -5769065.259 -12672376.993 -21407377.056 10 0 59626 48600.00000 0 -3257634.381 -11656524.128 -22479029.165 10 0 59626 49500.00000 0 -574390.317 -10806158.781 -23115269.887 10 0 59626 50400.00000 0 2216387.712 -10152299.681 -23303401.737 10 0 59626 51300.00000 0 5045398.740 -9714232.068 -23039379.024 10 0 59626 52200.00000 0 7840951.704 -9498723.376 -22327916.388 10 0 59626 53100.00000 0 10531709.389 -9499779.460 -21182429.575 10 0 59626 54000.00000 0 13049432.049 -9698954.100 -19624807.046 10 0 59626 54900.00000 0 15331606.892 -10066201.428 -17685014.156 10 0 59626 55800.00000 0 17323853.179 -10561237.761 -15400535.107 10 0 59626 56700.00000 0 18982001.141 -11135357.315 -12815661.314 10 0 59626 57600.00000 0 20273755.788 -11733626.179 -9980638.442 10 0 59626 58500.00000 0 21179873.556 -12297361.917 -6950687.909 10 0 59626 59400.00000 0 21694800.292 -12766792.866 -3784921.938 10 0 59626 60300.00000 0 21826742.068 -13083782.606 -545174.138 10 0 59626 61200.00000 0 21597164.829 -13194501.414 2705229.795 10 0 59626 62100.00000 0 21039744.033 -13051928.270 5902734.997 10 0 59626 63000.00000 0 20198809.586 -12618074.072 8984826.602 10 0 59626 63900.00000 0 19127353.658 -11865828.770 11891277.418 10 0 59626 64800.00000 0 17884688.186 -10780351.744 14565347.072 10 0 59626 65700.00000 0 16533854.001 -9359944.840 16954906.892 10 0 59626 66600.00000 0 15138894.052 -7616370.474 19013466.805 10 0 59626 67500.00000 0 13762108.450 -5574601.435 20701083.325 10 0 59626 68400.00000 0 12461409.048 -3272013.765 21985130.825 10 0 59626 69300.00000 0 11287886.077 -757058.087 22840921.689 10 0 59626 70200.00000 0 10283689.186 1912533.281 23252164.727 10 0 59626 71100.00000 0 9480310.867 4671926.847 23211254.850 10 0 59626 72000.00000 0 8897342.363 7451663.633 22719390.621 10 0 59626 72900.00000 0 8541751.431 10180326.136 21786519.894 10 0 59626 73800.00000 0 8407709.043 12787285.527 20431116.901 10 0 59626 74700.00000 0 8476968.916 15205415.473 18679797.311 10 0 59626 75600.00000 0 8719780.740 17373661.383 16566780.489 10 0 59626 76500.00000 0 9096296.080 19239360.538 14133210.692 10 0 59626 77400.00000 0 9558405.894 20760219.284 11426351.237 10 0 59626 78300.00000 0 10051931.292 21905868.196 8498667.537 10 0 59626 79200.00000 0 10519075.110 22658933.528 5406816.566 10 0 59626 80100.00000 0 10901031.681 23015583.194 2210561.736 10 0 59626 81000.00000 0 11140646.129 22985526.961 -1028366.826 10 0 59626 81900.00000 0 11185012.832 22591472.687 -4247445.996 10 0 59626 82800.00000 0 10987905.435 21868062.307 -7384546.119 10 0 59626 83700.00000 0 10511937.792 20860332.315 -10379109.129 10 0 59626 84600.00000 0 9730366.136 19621762.485 -13173297.390 10 0 59626 85500.00000 0 8628457.332 18211993.196 -15713092.766 99